Time,TemperatureF,DewpointF,PressureIn,WindDirection,WindDirectionDegrees,WindSpeedMPH,WindSpeedGustMPH,Humidity,HourlyPrecipIn,Conditions,Clouds,dailyrainin,SoftwareType,DateUTC
2013-03-29 00:05:00,48.6,17.0,29.69,WNW,295,6.0,14.0,28,0.00,,,0.00,weatherlink.com 1.10,2013-03-29 07:05:00,
2013-03-29 00:20:00,47.5,14.0,29.70,SSW,208,4.0,10.0,26,0.00,,,0.00,weatherlink.com 1.10,2013-03-29 07:20:00,
2013-03-29 00:35:00,47.4,15.0,29.69,SW,229,6.0,10.0,27,0.00,,,0.00,weatherlink.com 1.10,2013-03-29 07:35:00,
2013-03-29 00:50:00,47.4,16.0,29.69,WSW,248,8.0,10.0,29,0.00,,,0.00,weatherlink.com 1.10,2013-03-29 07:50:00,
2013-03-29 01:06:00,47.5,17.0,29.69,West,262,5.0,11.0,29,0.00,,,0.00,weatherlink.com 1.10,2013-03-29 08:06:00,
2013-03-29 01:21:00,46.9,17.0,29.69,West,274,7.0,11.0,30,0.00,,,0.00,weatherlink.com 1.10,2013-03-29 08:21:00,
2013-03-29 01:36:00,46.8,17.0,29.69,SW,219,5.0,11.0,31,0.00,,,0.00,weatherlink.com 1.10,2013-03-29 08:36:00,
2013-03-29 01:51:00,46.8,17.0,29.69,WSW,245,5.0,12.0,30,0.00,,,0.00,weatherlink.com 1.10,2013-03-29 08:51:00,
2013-03-29 02:06:00,47.3,19.0,29.68,West,270,10.0,13.0,32,0.00,,,0.00,weatherlink.com 1.10,2013-03-29 09:06:00,
2013-03-29 02:21:00,46.6,17.0,29.68,West,271,7.0,12.0,31,0.00,,,0.00,weatherlink.com 1.10,2013-03-29 09:21:00,
2013-03-29 02:36:00,46.6,17.0,29.68,WSW,245,9.0,13.0,30,0.00,,,0.00,weatherlink.com 1.10,2013-03-29 09:36:00,
2013-03-29 02:51:00,46.0,16.0,29.68,WSW,245,6.0,11.0,30,0.00,,,0.00,weatherlink.com 1.10,2013-03-29 09:51:00,
2013-03-29 03:06:00,45.5,16.0,29.68,WSW,248,3.0,13.0,31,0.00,,,0.00,weatherlink.com 1.10,2013-03-29 10:06:00,
2013-03-29 03:21:00,45.8,19.0,29.67,West,259,5.0,9.0,34,0.00,,,0.00,weatherlink.com 1.10,2013-03-29 10:21:00,
2013-03-29 03:51:00,45.7,19.0,29.67,West,260,8.0,12.0,34,0.00,,,0.00,weatherlink.com 1.10,2013-03-29 10:51:00,
2013-03-29 04:36:00,46.4,22.0,29.68,SW,236,2.0,10.0,38,0.00,,,0.00,weatherlink.com 1.10,2013-03-29 11:36:00,
2013-03-29 05:21:00,45.4,18.0,29.69,SW,233,1.0,8.0,34,0.00,,,0.00,weatherlink.com 1.10,2013-03-29 12:21:00,
2013-03-29 05:36:00,45.4,24.0,29.69,SW,218,5.0,8.0,43,0.00,,,0.00,weatherlink.com 1.10,2013-03-29 12:36:00,
2013-03-29 05:51:00,45.3,25.0,29.69,SW,215,3.0,7.0,45,0.00,,,0.00,weatherlink.com 1.10,2013-03-29 12:51:00,
2013-03-29 06:06:00,45.6,26.0,29.69,WSW,257,2.0,11.0,46,0.00,,,0.00,weatherlink.com 1.10,2013-03-29 13:06:00,
2013-03-29 06:21:00,45.0,26.0,29.70,WSW,255,6.0,9.0,48,0.00,,,0.00,weatherlink.com 1.10,2013-03-29 13:21:00,
2013-03-29 06:36:00,45.0,27.0,29.70,SW,218,3.0,6.0,50,0.00,,,0.00,weatherlink.com 1.10,2013-03-29 13:36:00,
2013-03-29 06:51:00,45.1,29.0,29.70,SW,229,4.0,6.0,53,0.00,,,0.00,weatherlink.com 1.10,2013-03-29 13:51:00,
2013-03-29 07:06:00,45.9,29.0,29.70,SSE,162,2.0,8.0,51,0.00,,,0.00,weatherlink.com 1.10,2013-03-29 14:06:00,
2013-03-29 08:06:00,48.8,28.0,29.72,ESE,113,3.0,11.0,45,0.00,,,0.00,weatherlink.com 1.10,2013-03-29 15:06:00,
2013-03-29 08:36:00,48.6,29.0,29.72,NNW,328,3.0,7.0,47,0.00,,,0.00,weatherlink.com 1.10,2013-03-29 15:36:00,
2013-03-29 08:51:00,49.8,30.0,29.72,West,267,2.0,5.0,46,0.00,,,0.00,weatherlink.com 1.10,2013-03-29 15:51:00,
2013-03-29 09:06:00,50.5,30.0,29.73,ENE,68,1.0,10.0,45,0.00,,,0.00,weatherlink.com 1.10,2013-03-29 16:06:00,
2013-03-29 09:21:00,51.3,30.0,29.73,ESE,113,6.0,8.0,45,0.00,,,0.00,weatherlink.com 1.10,2013-03-29 16:21:00,
2013-03-29 09:36:00,50.8,29.0,29.73,ENE,67,4.0,8.0,43,0.00,,,0.00,weatherlink.com 1.10,2013-03-29 16:36:00,
2013-03-29 09:51:00,51.0,29.0,29.73,ESE,110,2.0,8.0,43,0.00,,,0.00,weatherlink.com 1.10,2013-03-29 16:51:00,
2013-03-29 10:06:00,51.8,28.0,29.73,South,169,6.0,8.0,40,0.00,,,0.00,weatherlink.com 1.10,2013-03-29 17:06:00,
2013-03-29 10:21:00,52.8,28.0,29.74,SSE,163,5.0,8.0,39,0.00,,,0.00,weatherlink.com 1.10,2013-03-29 17:21:00,
2013-03-29 10:36:00,53.3,29.0,29.74,NE,50,1.0,6.0,39,0.00,,,0.00,weatherlink.com 1.10,2013-03-29 17:36:00,
2013-03-29 10:51:00,55.3,27.0,29.74,SW,236,1.0,9.0,34,0.00,,,0.00,weatherlink.com 1.10,2013-03-29 17:51:00,
2013-03-29 11:21:00,55.7,27.0,29.74,NW,311,5.0,12.0,33,0.00,,,0.00,weatherlink.com 1.10,2013-03-29 18:21:00,
2013-03-29 11:36:00,55.9,27.0,29.73,NW,305,3.0,8.0,33,0.00,,,0.00,weatherlink.com 1.10,2013-03-29 18:36:00,
2013-03-29 11:52:00,57.5,26.0,29.73,NW,311,1.0,9.0,30,0.00,,,0.00,weatherlink.com 1.10,2013-03-29 18:52:00,
2013-03-29 12:06:00,57.4,26.0,29.73,NW,322,3.0,13.0,30,0.00,,,0.00,weatherlink.com 1.10,2013-03-29 19:06:00,
2013-03-29 12:21:00,59.4,26.0,29.73,West,271,1.0,11.0,28,0.00,,,0.00,weatherlink.com 1.10,2013-03-29 19:21:00,
2013-03-29 12:36:00,60.1,25.0,29.72,East,84,3.0,7.0,26,0.00,,,0.00,weatherlink.com 1.10,2013-03-29 19:36:00,
2013-03-29 12:51:00,60.4,26.0,29.71,ENE,70,3.0,4.0,27,0.00,,,0.00,weatherlink.com 1.10,2013-03-29 19:51:00,
2013-03-29 13:06:00,61.0,27.0,29.71,North,5,1.0,6.0,27,0.00,,,0.00,weatherlink.com 1.10,2013-03-29 20:06:00,
2013-03-29 13:22:00,61.4,26.0,29.71,SW,224,0.0,6.0,26,0.00,,,0.00,weatherlink.com 1.10,2013-03-29 20:22:00,
2013-03-29 13:37:00,62.0,27.0,29.70,WNW,297,1.0,6.0,26,0.00,,,0.00,weatherlink.com 1.10,2013-03-29 20:37:00,
2013-03-29 13:52:00,61.3,24.0,29.70,NNE,30,1.0,5.0,24,0.00,,,0.00,weatherlink.com 1.10,2013-03-29 20:52:00,
2013-03-29 14:07:00,62.0,26.0,29.70,NE,53,0.0,4.0,25,0.00,,,0.00,weatherlink.com 1.10,2013-03-29 21:07:00,
2013-03-29 14:22:00,62.2,23.0,29.69,NW,308,2.0,9.0,22,0.00,,,0.00,weatherlink.com 1.10,2013-03-29 21:22:00,
2013-03-29 14:38:00,61.3,23.0,29.69,ENE,69,2.0,6.0,23,0.00,,,0.00,weatherlink.com 1.10,2013-03-29 21:38:00,
2013-03-29 14:52:00,60.5,20.0,29.69,SSE,151,3.0,10.0,21,0.00,,,0.00,weatherlink.com 1.10,2013-03-29 21:52:00,
2013-03-29 15:07:00,61.3,21.0,29.68,NW,316,1.0,5.0,21,0.00,,,0.00,weatherlink.com 1.10,2013-03-29 22:07:00,
2013-03-29 15:22:00,61.1,22.0,29.68,South,179,2.0,8.0,22,0.00,,,0.00,weatherlink.com 1.10,2013-03-29 22:22:00,
2013-03-29 15:37:00,60.5,22.0,29.68,West,278,3.0,9.0,23,0.00,,,0.00,weatherlink.com 1.10,2013-03-29 22:37:00,
2013-03-29 15:52:00,60.2,23.0,29.67,West,281,5.0,14.0,24,0.00,,,0.00,weatherlink.com 1.10,2013-03-29 22:52:00,
2013-03-29 16:07:00,59.2,21.0,29.67,SW,218,8.0,15.0,23,0.00,,,0.00,weatherlink.com 1.10,2013-03-29 23:07:00,
2013-03-29 16:22:00,56.2,19.0,29.67,West,276,9.0,17.0,23,0.00,,,0.00,weatherlink.com 1.10,2013-03-29 23:22:00,
2013-03-29 16:37:00,56.4,18.0,29.67,West,276,6.0,14.0,22,0.00,,,0.00,weatherlink.com 1.10,2013-03-29 23:37:00,
2013-03-29 16:52:00,57.1,16.0,29.67,NNW,328,3.0,10.0,20,0.00,,,0.00,weatherlink.com 1.10,2013-03-29 23:52:00,
2013-03-29 17:07:00,57.2,16.0,29.68,WNW,297,6.0,12.0,20,0.00,,,0.00,weatherlink.com 1.10,2013-03-30 00:07:00,
2013-03-29 17:22:00,56.8,15.0,29.68,ENE,70,2.0,10.0,19,0.00,,,0.00,weatherlink.com 1.10,2013-03-30 00:22:00,
2013-03-29 17:37:00,54.8,12.0,29.68,SW,226,11.0,15.0,18,0.00,,,0.00,weatherlink.com 1.10,2013-03-30 00:37:00,
2013-03-29 17:52:00,54.2,15.0,29.68,WSW,250,7.0,14.0,21,0.00,,,0.00,weatherlink.com 1.10,2013-03-30 00:52:00,
2013-03-29 18:07:00,53.1,17.0,29.68,SSW,195,2.0,10.0,24,0.00,,,0.00,weatherlink.com 1.10,2013-03-30 01:07:00,
2013-03-29 18:22:00,52.1,19.0,29.68,WSW,257,7.0,14.0,27,0.00,,,0.00,weatherlink.com 1.10,2013-03-30 01:22:00,
2013-03-29 18:37:00,51.3,19.0,29.69,SW,229,9.0,14.0,28,0.00,,,0.00,weatherlink.com 1.10,2013-03-30 01:37:00,
2013-03-29 18:52:00,50.7,18.0,29.68,West,264,9.0,11.0,28,0.00,,,0.00,weatherlink.com 1.10,2013-03-30 01:52:00,
2013-03-29 19:07:00,50.7,17.0,29.68,WSW,253,4.0,15.0,26,0.00,,,0.00,weatherlink.com 1.10,2013-03-30 02:07:00,
2013-03-29 19:22:00,50.9,15.0,29.69,WSW,238,7.0,12.0,24,0.00,,,0.00,weatherlink.com 1.10,2013-03-30 02:22:00,
2013-03-29 19:37:00,51.3,13.0,29.69,WSW,249,9.0,12.0,22,0.00,,,0.00,weatherlink.com 1.10,2013-03-30 02:37:00,
2013-03-29 19:52:00,51.2,13.0,29.69,SW,226,8.0,12.0,22,0.00,,,0.00,weatherlink.com 1.10,2013-03-30 02:52:00,
2013-03-29 20:07:00,51.2,12.0,29.70,SW,218,9.0,12.0,21,0.00,,,0.00,weatherlink.com 1.10,2013-03-30 03:07:00,
2013-03-29 20:22:00,50.3,13.0,29.70,SSW,198,3.0,10.0,22,0.00,,,0.00,weatherlink.com 1.10,2013-03-30 03:22:00,
2013-03-29 20:37:00,50.8,11.0,29.70,West,269,6.0,11.0,20,0.00,,,0.00,weatherlink.com 1.10,2013-03-30 03:37:00,
2013-03-29 20:52:00,51.2,10.0,29.71,SW,231,7.0,12.0,19,0.00,,,0.00,weatherlink.com 1.10,2013-03-30 03:52:00,
2013-03-29 21:07:00,51.6,9.0,29.72,SW,219,6.0,12.0,18,0.00,,,0.00,weatherlink.com 1.10,2013-03-30 04:07:00,
2013-03-29 21:22:00,51.6,8.0,29.72,SW,231,6.0,10.0,17,0.00,,,0.00,weatherlink.com 1.10,2013-03-30 04:22:00,
2013-03-29 21:38:00,51.6,7.0,29.72,SW,232,5.0,11.0,16,0.00,,,0.00,weatherlink.com 1.10,2013-03-30 04:38:00,
2013-03-29 21:53:00,51.4,6.0,29.73,SW,215,5.0,9.0,16,0.00,,,0.00,weatherlink.com 1.10,2013-03-30 04:53:00,
2013-03-29 22:08:00,50.9,7.0,29.73,WSW,243,5.0,9.0,17,0.00,,,0.00,weatherlink.com 1.10,2013-03-30 05:08:00,
2013-03-29 22:23:00,50.3,7.0,29.73,SW,229,2.0,9.0,17,0.00,,,0.00,weatherlink.com 1.10,2013-03-30 05:23:00,
2013-03-29 22:38:00,50.2,7.0,29.73,WSW,250,6.0,9.0,17,0.00,,,0.00,weatherlink.com 1.10,2013-03-30 05:38:00,
2013-03-29 22:53:00,50.0,8.0,29.73,WSW,249,5.0,11.0,18,0.00,,,0.00,weatherlink.com 1.10,2013-03-30 05:53:00,
2013-03-29 23:08:00,50.3,7.0,29.73,SW,231,8.0,12.0,17,0.00,,,0.00,weatherlink.com 1.10,2013-03-30 06:08:00,
2013-03-29 23:23:00,50.1,8.0,29.73,SSW,212,8.0,11.0,18,0.00,,,0.00,weatherlink.com 1.10,2013-03-30 06:23:00,
2013-03-29 23:38:00,50.3,8.0,29.73,NNW,346,6.0,10.0,18,0.00,,,0.00,weatherlink.com 1.10,2013-03-30 06:38:00,
2013-03-29 23:53:00,50.9,7.0,29.73,SW,227,7.0,11.0,17,0.00,,,0.00,weatherlink.com 1.10,2013-03-30 06:53:00,